Regional Weather Roundup
Issued by NWS

Home | Current Version | Previous Version | Text Only | Print | Product List | Glossary On
Versions: 1 2 3 4 5 6 7 8 9 10 11 12 13 14 15 16 17 18 19 20 21 22 23 24 25 26 27 28 29 30 31 32 33 34 35 36 37 38 39 40 41 42 43 44 45 46 47 48 49 50
000
ASUS43 KFSD 200510
RWRSD

WEATHER ROUNDUP FOR SOUTH DAKOTA
NATIONAL WEATHER SERVICE SIOUX FALLS SD
1100 PM CST THU JAN 19 2017

NOTE: "FAIR" INDICATES FEW OR NO CLOUDS BELOW 12,000 FEET WITH NO
SIGNIFICANT WEATHER AND/OR OBSTRUCTIONS TO VISIBILITY.


SDZ001>005-009-010-012>017-200600-
NORTHWEST AND NORTH CENTRAL SOUTH DAKOTA

CITY           SKY/WX    TMP DP  RH WIND       PRES   REMARKS
BUFFALO          N/A     31  19  61 W12       29.36F WCI  22
FAITH            N/A     20  17  88 N5        29.40F WCI  13
MOBRIDGE       FOG       23  20  88 N6        29.43F VSB 1/4 WCI  16
$$

SDZ012>016-024>037-041>051-057-063-072>074-200600-
SOUTHWEST AND SOUTH CENTRAL SOUTH DAKOTA

CITY           SKY/WX    TMP DP  RH WIND       PRES   REMARKS
RAPID CTY ARPT CLOUDY    30  19  63 W6        29.42F WCI  24
PIERRE         FOG       22  20  92 CALM      29.45S VSB 1/4
CUSTER         CLOUDY    30  19  63 W5        29.44F WCI  25
ELLSWORTH AFB  CLOUDY    31  20  63 W3        29.42F
PHILIP         CLOUDY    16  14  92 W6        29.44F WCI   7
PINE RIDGE     CLOUDY    22  20  92 CALM      29.47R
SPEARFISH      FAIR      37  23  56 VRB7      29.44S
WINNER         MOCLDY    36  34  92 S10       29.46R
$$

SDZ004>011-016>023-039-040-200600-
NORTHEAST SOUTH DAKOTA

CITY           SKY/WX    TMP DP  RH WIND       PRES   REMARKS
ABERDEEN       CLOUDY    34  32  92 SE12      29.52S FOG     WCI  25
WATERTOWN      CLOUDY    35  35 100 S14       29.54S FOG     WCI  26
BROOKINGS      MIX PCPN  35  35 100 SE14      29.56F FOG     WCI  26
SISSETON         N/A     35  35 100 S9        29.56F WCI  28
$$

SDZ017-020-022-023-036>040-048>070-200600-
SOUTHEAST SOUTH DAKOTA

CITY           SKY/WX    TMP DP  RH WIND       PRES   REMARKS
SIOUX FALLS    DRZL/FOG  37  37 100 SE12      29.59F VSB 3/4
HURON          CLOUDY    36  36 100 SE9       29.52S
CHAMBERLAIN    CLOUDY    39  38  97 S7        29.47F
MITCHELL       CLOUDY    39  39 100 SE15      29.54S
YANKTON        CLOUDY    39  36  87 SE10      29.57S
$$

ABBREVIATIONS USED IN REMARKS
   TC - TEMPERATURE IN CELSIUS
  WCI - WIND CHILL INDEX
   HX - HEAT INDEX
  VSB - VISIBILITY




USA.gov is the U.S. government's official web portal to all federal, state and local government web resources and services.